This demonstration page uses our WeatherBlox Daily Observations layout. Learn more.

Left ArrowRight Arrow

39.29038, -76.61219

Hourly Observations for January 4, 2020

Temp ( °F °C ) Dew Point ( °F °C ) Humidity (%) Winds ( mph kmh ) Pressure ( in mb ) Visibility ( mi km ) Precip ( " mm )
12:54 am 00:54 undefined 49 9.4 48 8.9 97 97 undefined N/A 29.77 1008 N/A 0.02 0.51
1:54 am 01:54 undefined 49 9.4 48 8.9 97 97 undefined N/A 29.76 1008 N/A 0.02 0.51
2:54 am 02:54 undefined 50 10 48 8.9 93 93 undefined N/A 29.76 1008 N/A 0.00 0.00
3:54 am 03:54 undefined 49 9.4 48 8.9 97 97 undefined N/A 29.70 1006 N/A 0.01 0.25
4:54 am 04:54 undefined 50 10 49 9.4 96 96 undefined N/A 29.69 1005 N/A 0.01 0.25
5:54 am 05:54 undefined 50 10 49 9.4 96 96 undefined N/A 29.67 1005 N/A 0.00 0.00
6:54 am 06:54 undefined 49 9.4 48 8.9 97 97 undefined N/A 29.67 1005 N/A 0.00 0.00
7:54 am 07:54 undefined 50 10 49 9.4 96 96 undefined N/A 29.68 1005 N/A 0.00 0.00
8:54 am 08:54 undefined 51 10.6 50 10 96 96 undefined N/A 29.67 1005 N/A 0.00 0.00
9:54 am 09:54 undefined 51 10.6 50 10 96 96 undefined N/A 29.70 1006 N/A 0.00 0.00
10:54 am 10:54 undefined 51 10.6 50 10 96 96 undefined N/A 29.67 1005 N/A 0.00 0.00
11:54 am 11:54 undefined 56 13.3 53 11.7 90 90 undefined N/A 29.63 1004 N/A 0.00 0.00
12:54 pm 12:54 undefined 57 13.9 53 11.7 87 87 undefined N/A 29.60 1002 N/A 0.00 0.00
1:54 pm 13:54 undefined 56 13.3 53 11.7 90 90 undefined N/A 29.57 1001 N/A 0.00 0.00
2:54 pm 14:54 undefined 58 14.4 52 11.1 81 81 undefined N/A 29.55 1001 N/A 0.00 0.00
3:54 pm 15:54 undefined 54 12.2 52 11.1 93 93 undefined N/A 29.55 1001 N/A 0.00 0.00
4:54 pm 16:54 undefined 54 12.2 47 8.3 77 77 undefined N/A 29.54 1001 N/A 0.08 2.03
5:54 pm 17:54 undefined 52 11.1 44 6.7 75 75 undefined N/A 29.57 1002 N/A 0.02 0.51
6:54 pm 18:54 undefined 51 10.6 42 5.6 71 71 undefined N/A 29.61 1003 N/A 0.00 0.00
7:54 pm 19:54 undefined 50 10 42 5.6 74 74 undefined N/A 29.64 1004 N/A 0.00 0.00
8:54 pm 20:54 undefined 50 10 40 4.4 68 68 undefined N/A 29.65 1004 N/A 0.00 0.00
9:54 pm 21:54 undefined 49 9.4 35 1.7 59 59 undefined N/A 29.65 1004 N/A 0.00 0.00
10:54 pm 22:54 undefined 47 8.3 32 0 56 56 undefined N/A 29.67 1005 N/A 0.00 0.00
11:54 pm 23:54 undefined 47 8.3 32 0 56 56 undefined N/A 29.70 1006 N/A 0.00 0.00

Powered by AerisWeather